Погода в Ганновере

Германия     52°22′40″N   9°43′24″E
темп.,
°C
ветер,
м/с
пор.,
м/с
влажн.,
%
обл.,
%
осадки,
мм/ч
давл.,
гПа
погр.,
м
7 марта, вс
вс701:00+1з259281 0.1 1029188
04:000з368922 0.0 1027228
07:00−1з378812 0.0 1026250
10:00+3з576925 0.0 1025943
13:00+4зсз576262 0.0 10231075
16:00+4зсз4868100 0.0 1021957
19:00+3зсз4996100 0.3 1021568
22:00+3з4891100 0.1 1022466
8 марта, пн
пн801:00+3зсз3796100 1.3 1022428
04:000ссв249175 0.1 1022202
07:00−1св237340 0.1 1023121
10:00+2в355217 0.0 1024598
13:00+5вюв343613 0.0 10241162
16:00+5вюв233539 0.0 10231256
19:00+3вюв234865 0.0 1023131
22:00+2вюв3654100 0.0 1023211
9 марта, вт
вт901:00+2ююв2661100 0.0 1022264
04:00+2ю2363100 0.0 1020152
07:00+1ю2481100 0.1 1019339
10:00+1ююв4794100 0.9 1018340
13:00+2ююв3596100 1.8 1018260
16:00+3юв1297100 0.8 101791
19:00+2юв119899 0.8 101834
22:00+3юв129598 0.0 101939
10 марта, ср
ср1001:00+3ю119596 0.0 101932
04:00+3зюз129384 0.0 101985
07:00+3зюз239190 0.0 1019129
10:00+5юз2582100 0.0 1019437
13:00+9юз4666100 0.0 1019931
16:00+10ююз4764100 0.0 10161255
19:00+8ю51271100 0.0 1014675
22:00+7ююз61471100 0.1 10121030
11 марта, чт
чт1101:00+6ююз81581100 2.1 10081021
04:00+8ююз71580100 2.1 1003974
07:00+9юз71885100 3.0 10001142
10:00+11юз71984100 1.1 10001424
13:00+11зюз102163100 2.1 10002244
16:00+11з11215286 0.2 10012491
19:00+7зюз5156762 0.3 10021526
22:00+7зюз7156886 0.1 10031408